{"data":{"norad_id":44780,"intl_designator":"2019-076B","name":"NINGXIA-1 2","alt_names":[],"object_type":"PAYLOAD","status":"ACTIVE","operator":null,"country":"PRC","launch_date":"2019-11-13","launch_site_code":"TAISC","launch_vehicle":null,"mission":null,"orbit_class":"UNKNOWN","rcs_meters":null,"size_class":null,"mass_kg":null,"dimensions":null,"purposes":[],"wikipedia_slug":null,"has_3d_model":false,"image_url":null,"decayed_at":null,"tle_current":{"epoch":"2026-09-20T05:22:20.423136Z","epoch_age_seconds":85545,"freshness":"FRESH","line1":"1 44780U 19076B   26263.22384749 -.00000032  00000+0  63812-4 0  9993","line2":"2 44780  45.0072 115.5120 0006686 245.2474 114.7665 14.02128287351196","mean_motion":14.02128287,"eccentricity":0.0006686,"inclination_deg":45.0072,"raan_deg":115.512,"arg_perigee_deg":245.2474,"mean_anomaly_deg":114.7665,"bstar":6.3812e-5,"rev_number":35119,"period_min":102.70101625872,"perigee_km":881.57748690893,"apogee_km":891.29167202499,"semimajor_km":7264.571579467,"source":"CELESTRAK","updated_at":"2026-09-20T09:00:14.541984Z"}}}